Theta_e
301 300 301 301 301 302 303 303 302 304 302 303 304 304 304 305 305 300 295 297 296 290 292 296 296 293 294 294 291 296 297 297 293 289 289 290 289 292 291 294 295 294 292 291 292 288 287 308 308 298 301 305 307 307
300 300 301 301 301 302 302 303 301 303 303 303 302 303 305 305 305 305 293 300 301 293 292 296 297 298 298 299 296 297 295 294 297 292 293 294 289 289 289 286 298 293 296 294 296 294 302 307 307 308 309 307 305 306
300 300 300 300 301 301 302 302 301 303 303 302 302 303 304 305 305 303 297 299 297 291 292 289 292 296 298 299 302 295 294 295 294 297 296 295 293 296 291 293 296 300 303 297 298 304 305 308 309 311 310 308 308 308
301 301 301 300 300 301 302 302 301 303 303 302 302 303 303 303 304 303 297 298 296 293 288 289 299 295 300 299 300 301 298 296 296 296 293 292 292 297 293 297 295 300 301 298 298 302 306 307 310 310 309 309 308 308
300 300 300 300 300 301 301 301 300 301 303 303 302 303 303 304 304 301 296 297 295 292 286 287 293 297 299 298 297 297 295 293 290 290 290 290 292 292 294 297 294 300 298 296 295 303 302 304 309 312 309 308 308 308
300 300 300 300 300 300 301 301 301 301 303 303 303 303 303 304 304 295 291 297 298 296 288 283 291 293 295 296 295 295 295 293 290 289 289 291 294 291 289 291 299 301 303 304 302 307 309 312 312 314 311 310 310 308
300 300 300 300 300 299 300 301 300 302 302 303 304 304 304 304 297 292 291 296 301 295 289 284 284 292 295 295 293 292 292 292 291 288 287 288 289 290 288 285 295 303 305 305 309 309 308 311 309 311 312 313 312 314
299 300 300 300 300 300 299 301 300 302 302 302 303 304 304 304 301 293 295 301 299 292 291 283 284 288 293 289 289 293 289 289 289 289 289 287 288 288 284 290 295 298 300 303 304 312 312 312 312 309 310 310 309 309
299 299 300 300 300 300 300 299 300 300 301 302 303 303 298 295 292 294 304 302 296 293 284 286 284 283 291 290 293 292 290 285 289 286 286 288 286 284 288 291 294 297 297 299 305 314 312 310 309 308 306 307 305 305
299 299 299 300 300 300 300 301 300 300 302 303 297 293 288 293 302 300 294 291 291 291 289 284 288 285 288 287 289 289 288 285 282 286 289 285 283 290 293 294 297 299 299 299 296 305 307 307 307 308 306 306 306 305
299 299 299 300 300 300 300 301 301 301 301 294 293 293 296 301 293 291 286 285 287 284 286 287 288 285 292 286 285 290 287 287 281 289 286 284 283 289 294 295 297 297 298 298 301 301 311 310 308 307 306 307 308 309
299 299 299 300 300 300 300 301 301 295 296 294 296 297 295 291 287 285 281 285 285 284 287 285 287 290 290 289 286 287 282 283 281 287 287 285 293 301 303 303 303 298 298 299 306 309 308 311 310 309 308 308 309 310
300 300 299 300 300 300 300 301 301 302 299 297 294 290 287 285 276 281 279 282 282 289 291 290 288 290 289 289 285 285 284 278 287 281 281 286 296 300 301 303 302 303 304 305 309 311 311 310 310 308 307 309 309 308
300 300 300 300 300 300 300 301 301 299 294 289 286 276 282 281 282 282 283 285 291 293 292 289 288 287 286 286 286 283 286 286 279 278 281 290 293 297 300 301 302 302 302 305 309 309 309 308 307 310 311 310 308 305
300 300 300 300 300 301 300 299 300 295 291 287 286 277 281 285 288 290 293 291 293 295 291 288 287 287 285 283 284 284 283 281 283 282 287 289 293 296 297 298 298 300 302 302 305 307 308 308 308 308 310 311 311 308
300 299 297 300 301 301 301 299 295 294 290 287 288 284 286 286 286 290 289 290 293 290 289 287 280 276 280 282 282 282 282 280 284 286 289 290 291 294 295 297 298 299 301 302 304 307 307 307 307 308 310 311 311 310
300 292 300 301 301 301 301 294 292 289 286 287 284 287 285 285 285 288 290 290 293 289 280 280 277 279 280 280 282 284 282 284 286 287 289 290 290 291 293 296 298 299 299 300 302 305 307 308 309 308 306 308 311 310
292 295 301 301 298 297 294 293 289 287 285 285 282 284 287 289 287 289 290 293 291 289 287 282 285 278 279 279 280 284 286 288 288 288 288 289 290 291 294 293 296 297 298 300 301 305 309 309 308 308 307 309 310 306
295 297 301 301 297 292 288 289 290 282 285 285 285 286 288 288 290 292 292 293 292 291 288 282 281 276 277 284 285 286 287 286 288 289 290 292 293 294 295 295 296 296 297 298 298 301 306 310 309 309 309 309 304 304
300 301 300 300 298 290 288 286 291 285 284 286 288 286 286 286 289 291 292 291 290 286 283 280 279 283 286 290 291 291 291 292 291 290 291 293 295 294 293 295 295 295 296 297 301 301 308 309 311 309 309 304 303 302
297 296 299 296 295 293 290 287 286 287 286 285 290 288 286 288 286 289 289 291 288 286 288 289 290 288 293 293 294 294 293 293 292 292 292 292 296 296 297 298 298 295 296 299 302 307 305 308 308 307 304 304 305 304
293 299 293 295 291 293 290 291 288 288 286 287 287 288 286 285 285 286 289 287 287 287 288 288 291 292 292 292 293 294 295 295 295 295 294 294 294 295 296 295 294 295 299 306 309 308 307 308 307 306 305 304 302 302
298 295 292 293 289 286 285 293 287 288 284 285 288 284 282 284 287 291 286 287 288 290 291 293 293 294 293 294 295 296 297 296 296 296 297 297 298 298 298 298 299 303 306 307 309 309 307 300 300 305 304 302 301 300
297 291 288 286 285 279 289 283 287 286 287 285 285 284 285 285 289 286 285 286 287 290 291 292 293 291 290 292 293 295 302 303 302 302 299 297 296 297 300 305 308 307 308 309 309 307 305 305 301 303 303 302 301 300
281 281 281 278 284 283 283 284 285 284 284 287 286 285 283 287 282 280 279 284 288 289 290 291 291 290 290 294 299 301 304 303 301 300 302 305 303 304 303 305 306 306 308 305 304 304 303 304 303 303 303 302 300 299
280 284 280 282 282 280 280 280 281 283 285 283 284 286 288 285 284 280 284 287 287 289 288 290 291 292 295 298 299 301 303 304 304 302 303 305 304 302 301 301 301 302 306 306 305 303 303 303 303 303 301 297 293 299
281 283 285 287 288 287 284 285 287 280 278 278 282 284 285 283 281 284 288 290 288 290 292 294 295 296 297 300 302 303 304 305 304 303 305 305 304 304 304 302 301 303 306 305 305 304 303 303 303 303 301 301 301 300
287 287 284 286 285 287 285 284 284 283 284 287 288 284 282 281 280 285 288 290 291 292 293 296 298 301 301 300 303 303 303 304 305 305 306 305 304 303 303 303 302 290 301 301 305 306 305 304 304 304 303 301 300 301
286 289 287 285 288 287 285 285 283 286 289 289 286 283 283 286 287 288 289 290 292 293 294 295 299 301 301 300 299 298 298 299 300 297 297 297 299 301 303 303 303 302 299 294 287 297 306 306 305 305 304 303 301 300
288 292 289 288 286 285 286 288 286 288 289 288 287 286 287 288 289 292 291 291 291 292 295 298 299 298 296 295 295 295 296 296 296 297 296 295 296 301 303 303 302 303 304 303 304 302 293 301 300 305 303 302 299 297
291 288 286 287 285 286 289 290 291 290 289 286 287 284 284 286 289 290 291 292 293 295 295 296 296 297 296 295 293 293 293 295 295 295 296 298 299 300 300 301 300 301 302 302 302 301 303 303 304 302 301 299 297 297
289 288 287 286 286 290 291 288 288 288 288 287 286 289 288 286 284 288 290 292 292 292 290 293 293 294 296 296 296 295 290 294 294 294 295 295 296 298 299 300 301 301 300 300 299 299 300 301 300 300 300 299 299 298
289 289 289 288 287 288 289 288 286 286 286 286 287 286 286 284 282 285 292 292 292 292 292 292 295 296 295 295 295 294 292 293 289 287 288 287 287 289 295 297 299 300 298 297 298 299 298 298 298 299 299 299 298 298
Wind_Speed
8 8 10 8 8 9 8 7 5 8 4 4 6 7 7 7 7 2 6 4 3 2 5 3 3 4 5 3 1 5 2 5 5 4 4 3 3 4 3 4 5 6 6 4 3 4 8 5 2 5 7 2 2 2
7 7 7 9 9 8 9 7 1 11 7 4 4 7 8 7 6 4 3 2 2 3 6 4 9 10 5 4 2 4 3 2 2 3 2 1 1 2 3 4 5 4 7 7 8 7 5 2 6 5 7 6 3 5
9 9 8 7 8 8 9 5 4 11 8 3 3 7 8 8 5 4 3 3 3 0 5 3 7 5 3 3 3 4 2 1 3 3 2 1 1 2 2 1 3 7 6 1 4 4 2 7 5 4 4 6 6 9
11 9 8 5 6 8 8 3 3 8 5 3 4 6 7 8 9 8 2 3 1 1 1 6 2 3 5 3 3 4 5 3 2 2 2 2 1 1 2 3 2 3 4 3 2 3 5 5 7 8 8 10 10 9
10 8 7 4 4 7 5 4 5 6 5 4 5 6 7 9 12 4 3 2 1 4 2 5 7 4 4 6 6 5 5 3 2 3 3 2 2 3 2 2 2 3 4 3 5 4 3 4 6 12 13 11 13 14
8 8 6 3 3 5 6 5 6 5 7 4 6 7 9 10 12 3 2 2 5 2 3 3 4 3 3 5 6 5 4 2 3 3 3 2 2 4 1 2 3 1 1 3 4 2 2 3 6 9 12 13 12 12
8 9 6 6 3 3 6 3 4 7 4 6 8 9 9 9 2 2 4 3 6 2 3 4 4 4 5 4 1 2 2 2 3 1 1 2 2 4 2 3 5 5 5 1 4 2 3 2 3 2 9 9 9 10
7 7 7 6 5 2 2 1 2 7 6 7 8 9 9 10 4 3 3 3 2 2 2 1 5 3 3 1 1 2 2 2 2 3 1 3 2 2 4 7 9 6 7 6 5 3 3 5 6 5 8 12 11 10
7 7 6 5 3 3 2 1 3 6 7 9 9 10 3 2 0 3 3 1 1 3 2 0 1 3 1 2 2 2 3 2 1 2 3 4 2 4 7 9 9 8 6 6 8 7 4 7 8 8 7 8 10 9
8 6 5 5 3 1 2 2 3 5 8 7 2 2 2 2 2 3 3 2 3 2 0 2 2 3 3 0 0 2 1 3 2 6 2 3 5 8 9 8 5 2 1 1 5 11 9 5 10 12 12 8 13 14
9 7 6 4 3 2 2 2 3 7 4 2 3 1 3 3 3 1 1 2 2 2 3 4 4 1 4 4 2 2 2 0 2 2 4 2 4 4 8 13 9 7 7 6 3 6 15 13 12 10 8 7 7 9
10 9 7 6 3 3 3 2 2 3 1 2 2 3 3 2 2 1 2 2 3 4 3 4 3 3 2 3 3 3 3 3 2 1 2 2 3 6 7 9 10 7 7 4 1 5 11 16 15 13 13 10 8 6
12 10 8 7 5 3 2 3 1 4 6 1 2 2 2 2 4 2 3 3 2 3 2 3 3 2 4 5 2 2 2 4 1 2 3 3 6 10 10 10 11 11 11 4 4 5 7 7 9 11 10 7 7 9
12 12 10 8 6 4 2 1 0 3 1 1 1 4 2 2 3 3 2 2 1 2 2 4 3 3 0 3 1 2 3 2 1 1 2 3 5 6 8 11 10 12 13 11 3 7 10 10 8 9 8 6 9 10
12 11 10 8 7 5 3 1 1 1 1 0 1 2 3 4 3 3 3 3 2 2 1 3 4 3 2 2 1 2 2 4 3 2 2 3 6 5 7 9 10 11 10 11 8 4 9 10 10 9 7 7 9 11
11 7 4 8 9 6 4 1 2 1 3 1 3 3 3 3 3 4 1 4 3 1 3 4 3 4 2 2 1 4 2 3 3 2 3 3 6 6 6 6 8 8 7 9 9 7 5 11 12 9 8 7 9 8
9 1 11 12 9 6 7 1 1 1 2 3 3 3 4 4 4 3 1 1 1 3 2 3 4 5 0 1 3 4 4 3 2 2 2 3 4 6 6 5 5 7 10 8 8 9 4 8 12 12 8 3 5 3
2 2 13 14 7 5 2 1 1 2 3 4 2 4 2 3 1 2 2 1 3 2 3 3 3 2 4 3 3 1 2 3 2 3 3 4 4 4 5 7 7 6 6 7 5 4 3 11 12 10 17 12 5 6
1 6 16 11 3 3 2 2 2 2 4 3 4 2 3 3 2 2 1 1 3 2 4 3 2 2 4 2 2 4 3 3 6 8 7 8 9 8 9 7 8 6 6 6 5 4 4 10 9 9 8 7 5 7
11 15 10 8 4 1 2 3 2 2 3 3 2 3 2 4 2 3 2 2 2 3 3 1 3 3 2 3 5 8 10 10 9 10 9 7 6 8 7 6 6 6 5 4 6 9 7 10 9 11 9 8 9 8
7 1 2 4 2 2 2 1 2 3 2 1 1 2 4 2 1 1 2 3 4 1 2 3 3 4 8 9 9 10 11 11 11 10 11 8 5 6 7 5 7 4 5 4 4 4 8 11 12 11 11 9 9 9
2 8 0 2 2 2 3 2 2 2 0 2 3 1 3 3 2 1 1 4 2 1 2 3 6 7 10 13 13 15 15 16 16 11 14 9 8 7 7 7 5 7 8 8 9 10 10 7 11 11 11 11 10 9
6 2 1 2 1 1 4 2 2 2 0 3 2 3 3 3 3 4 3 2 2 0 3 5 9 11 14 16 16 16 16 17 11 11 10 9 7 7 7 6 7 8 9 10 12 9 11 11 9 12 11 11 10 9
1 1 2 2 1 3 2 3 2 2 3 2 2 2 2 2 1 4 3 2 3 3 6 11 9 11 11 14 11 11 6 4 4 5 7 8 6 7 8 5 7 7 7 9 11 8 10 12 14 13 13 13 11 10
3 2 3 3 3 2 2 2 3 1 2 1 4 4 4 2 3 2 1 3 5 7 9 10 11 10 11 9 5 8 11 8 7 8 5 8 10 10 10 9 10 8 11 13 12 12 13 12 12 14 13 12 12 11
1 2 4 2 2 3 2 1 1 2 2 3 2 2 1 3 3 2 2 3 4 6 9 11 12 11 11 8 5 6 8 5 9 11 11 10 10 12 13 12 10 11 9 13 13 14 14 14 15 17 14 13 13 13
2 3 2 2 2 3 2 2 2 3 2 1 3 3 3 4 2 2 3 3 4 6 10 11 9 8 9 8 10 8 8 10 9 6 7 9 9 8 9 12 12 4 7 11 12 14 15 14 13 14 13 10 11 12
2 2 3 4 1 1 3 1 2 3 2 3 3 5 3 3 2 3 3 6 7 8 10 10 10 9 9 10 8 9 8 9 9 9 11 12 9 9 8 7 7 9 6 6 6 8 8 8 13 14 13 11 9 8
1 2 3 4 4 4 1 2 1 2 3 2 3 3 3 2 2 3 3 5 7 6 8 9 9 7 8 10 10 9 9 8 14 21 18 12 11 10 8 7 6 6 5 6 7 4 11 12 12 12 11 9 8 8
4 5 4 2 3 3 3 2 2 2 4 4 4 4 2 1 2 3 4 4 6 7 7 6 7 10 11 10 10 14 12 12 10 8 10 8 5 5 7 7 8 7 7 10 10 12 12 14 13 12 12 10 9 9
5 3 4 4 3 1 0 2 4 4 3 4 4 4 3 3 2 2 4 5 5 5 7 8 10 11 12 12 11 11 12 11 11 12 8 8 9 10 10 9 6 6 9 10 9 9 8 8 10 11 11 11 10 10
3 3 4 3 2 1 1 2 3 3 2 2 2 2 3 3 3 3 4 5 5 6 6 7 7 7 6 5 5 5 5 4 8 10 13 9 8 8 9 8 9 8 7 7 7 7 10 9 7 8 9 10 9 10
3 4 4 4 2 3 3 3 2 2 2 2 2 3 2 3 3 2 1 0 2 3 4 5 5 4 6 7 6 5 5 4 7 9 10 10 10 10 7 6 7 9 10 9 7 7 8 9 8 8 8 8 8 9
Wind_Direction
287 291 304 308 322 320 315 305 320 308 291 312 322 333 325 323 324 359 268 227 169 241 281 299 340 345 347 23 15 299 85 8 38 77 125 219 166 237 169 208 183 190 161 180 137 180 268 203 37 170 189 180 151 170
316 318 310 316 298 315 316 286 349 294 275 291 329 326 318 327 320 349 280 272 172 161 245 242 269 246 242 196 159 351 121 69 145 102 50 118 290 10 162 242 339 224 184 187 169 212 214 209 137 151 150 145 167 127
295 296 303 312 320 311 329 249 239 286 270 292 323 312 331 323 335 347 267 293 9 333 295 26 258 253 151 178 161 116 339 225 37 178 162 206 69 73 59 282 299 338 20 118 96 357 140 103 88 111 138 136 125 128
304 295 299 282 307 308 325 153 139 340 275 263 311 310 325 335 338 346 293 279 183 262 260 280 336 64 153 116 117 132 144 48 128 83 72 93 154 71 216 191 168 221 358 358 344 51 59 75 132 136 120 110 107 125
317 310 303 255 297 309 313 196 232 282 317 272 303 310 329 337 328 322 228 278 294 127 217 278 310 238 150 125 120 105 103 89 63 47 60 247 270 48 322 86 269 166 177 157 227 239 158 246 188 152 138 146 145 140
313 309 300 252 283 305 320 268 248 293 319 267 294 314 327 336 337 47 29 320 23 48 74 338 282 181 144 133 120 126 136 110 96 131 202 273 297 109 97 256 302 151 169 204 203 189 190 8 275 177 154 155 155 151
307 318 297 292 247 298 326 311 291 281 305 315 298 303 316 331 22 137 194 245 352 34 77 328 311 264 165 116 74 72 54 133 119 174 199 193 288 76 141 194 236 148 140 268 307 141 60 227 276 131 142 140 142 157
293 307 308 303 290 234 309 54 308 326 329 327 317 303 304 300 299 332 281 257 120 86 101 213 273 16 117 153 220 162 120 49 347 195 5 174 333 119 237 226 249 197 209 192 240 262 310 149 172 88 111 126 130 145
270 287 306 317 304 215 227 332 279 310 318 308 299 301 338 48 73 239 246 359 134 122 146 353 177 221 29 237 183 23 111 101 263 166 238 100 256 226 225 219 217 207 203 215 147 97 240 194 142 128 118 131 128 136
260 265 283 306 273 245 307 267 315 306 309 310 339 21 325 240 260 71 19 35 14 313 57 233 259 271 110 118 256 88 60 194 157 239 105 130 251 234 243 231 255 276 83 329 150 165 180 184 155 170 167 156 146 147
245 247 251 267 267 248 290 325 321 335 325 16 18 292 284 338 43 31 266 148 200 239 201 228 213 229 333 97 173 206 186 43 60 305 136 230 271 263 246 245 250 243 244 249 204 201 183 172 168 162 169 153 140 128
227 230 230 237 248 252 272 286 331 11 32 224 276 281 291 16 20 82 257 279 192 238 188 167 224 159 331 78 77 355 113 43 233 278 135 266 272 35 13 31 7 220 221 222 174 317 190 169 168 168 164 153 151 131
217 216 215 217 228 246 283 248 306 301 325 350 200 264 84 294 33 223 204 237 246 324 330 107 47 93 7 32 45 44 86 232 22 42 220 13 339 18 15 23 20 9 25 184 130 91 110 134 151 160 155 145 160 131
205 204 202 202 207 223 270 70 183 327 18 29 319 321 165 247 251 219 255 212 295 346 59 87 66 102 186 46 28 81 255 89 13 247 97 299 325 356 18 14 17 8 6 17 82 122 122 132 134 127 122 120 135 130
188 189 190 196 196 197 175 92 16 13 48 349 308 264 229 245 300 225 81 18 332 255 55 48 40 80 34 56 330 17 315 233 212 161 150 278 313 357 19 6 6 12 357 2 348 172 130 124 125 115 103 103 109 113
153 135 186 182 189 184 162 140 2 18 342 279 240 284 308 52 7 8 21 193 232 70 48 49 79 49 333 176 126 221 241 239 168 199 234 284 334 349 8 0 340 351 1 342 356 348 162 130 126 112 92 92 74 70
141 206 170 170 168 171 168 65 39 304 221 279 265 255 216 223 209 208 241 254 263 78 132 106 87 208 325 357 244 206 214 192 229 281 311 356 339 316 324 336 335 335 336 337 344 343 198 129 128 114 92 23 99 39
68 305 141 133 115 91 4 294 277 203 258 245 256 276 236 219 329 18 297 337 74 102 123 196 154 104 194 220 255 278 337 295 259 259 271 273 278 284 294 294 292 284 293 301 326 318 224 144 145 141 148 202 148 133
165 128 133 129 88 114 143 255 155 250 250 249 267 298 275 268 229 175 197 25 78 94 87 39 75 212 241 242 259 292 286 270 294 297 283 276 287 277 291 275 274 267 270 276 280 260 203 176 155 144 143 144 136 132
132 133 110 36 30 19 220 264 162 235 280 262 279 329 270 244 270 162 182 122 93 82 66 81 220 237 233 283 284 274 270 269 263 267 269 259 259 256 244 239 256 256 264 281 269 261 169 155 152 143 155 146 127 127
82 73 53 20 301 229 251 278 253 224 285 324 260 14 274 290 182 124 225 142 78 79 255 237 304 304 285 279 271 266 261 250 243 236 254 254 232 225 239 245 256 251 251 235 240 185 143 151 145 145 135 128 123 119
89 164 236 222 281 280 236 240 197 262 184 246 341 212 328 6 7 298 184 62 85 67 353 314 295 293 295 293 286 278 267 254 241 235 223 226 235 230 229 233 211 240 243 200 160 139 125 131 133 129 126 113 114 116
139 210 268 252 245 336 266 35 349 302 246 289 341 47 349 356 313 347 63 68 92 29 260 294 297 298 305 299 285 280 275 261 244 224 213 208 204 205 216 224 226 217 147 137 128 127 129 133 120 118 115 108 106 106
74 15 343 333 215 259 326 327 308 344 330 339 54 28 352 267 354 41 43 46 332 313 338 325 324 320 312 305 298 293 319 343 44 109 157 169 186 217 221 194 117 99 121 134 127 115 123 120 125 124 118 116 112 109
65 14 88 323 275 338 284 321 320 37 346 97 165 205 242 68 65 35 12 332 329 349 329 320 318 310 299 299 335 14 27 20 52 69 68 100 102 95 84 89 91 95 102 103 112 126 122 118 116 116 119 116 114 113
186 167 150 280 288 117 280 317 268 291 0 2 302 257 96 101 64 20 8 341 334 340 324 318 318 317 329 350 44 39 29 26 58 58 64 80 89 103 105 111 109 107 117 125 133 126 120 121 118 119 120 119 120 122
222 156 178 252 310 315 331 280 287 92 40 337 298 346 26 73 54 24 333 14 329 313 305 300 308 312 318 356 49 43 37 42 36 38 56 66 66 66 87 95 91 64 91 108 118 122 127 123 124 131 131 133 136 137
243 131 154 157 192 260 290 268 39 30 358 316 28 35 61 27 18 329 324 327 315 309 303 309 324 345 30 34 42 37 26 26 37 64 61 60 49 54 56 53 59 61 56 53 68 92 95 120 138 141 138 138 138 145
218 139 127 171 208 210 296 58 15 355 322 40 67 79 86 70 331 292 303 311 314 308 314 334 358 16 56 61 49 36 28 10 80 74 68 60 51 53 57 45 37 42 53 69 37 112 140 144 144 140 133 123 115 109
180 186 178 178 68 50 320 112 93 45 32 82 102 101 95 93 299 293 331 324 346 333 331 342 12 33 43 47 50 44 33 32 32 51 70 61 49 62 75 83 85 72 81 75 78 90 92 105 104 111 113 113 115 122
138 124 70 78 79 324 26 66 62 78 63 57 59 89 120 137 256 337 350 341 335 358 14 15 26 33 43 42 39 39 39 20 26 38 43 50 51 46 45 42 38 57 70 73 65 72 92 103 113 117 122 128 134 136
72 95 118 98 101 228 26 100 74 74 48 80 77 96 142 148 78 352 338 340 354 21 10 18 31 28 19 31 44 62 65 39 36 30 34 37 37 38 41 39 41 46 48 59 71 80 80 92 101 116 131 135 137 140
79 82 95 104 121 183 233 128 112 122 95 63 84 152 108 89 120 227 255 111 321 337 341 337 337 27 40 39 37 34 51 63 58 45 41 41 40 33 35 28 36 45 53 53 61 73 76 89 97 109 120 131 140 141